GW3995 Weather Reports


time (UTC)temp
C
wind
direction
speed
KPH
gust
KPH
rain 1hr
cm
rain 24hr
cm
rain mn
cm
humidity
%
barometer
mb
20260510192417 28 64 3.2 6.4 0.00 0.00 0.00 35 1014.4
20260510191917 28 228 4.8 6.4 0.00 0.00 0.00 35 1014.4
20260510191417 28 227 4.8 9.7 0.00 0.00 0.00 35 1014.4
20260510190919 28 193 0.0 3.2 0.00 0.00 0.00 33 1014.4
20260510190417 28 209 3.2 12.9 0.00 0.00 0.00 34 1014.5
20260510185917 28 237 1.6 6.4 0.00 0.00 0.00 33 1014.5
20260510185417 29 114 1.6 3.2 0.00 0.00 0.00 37 1014.6
20260510184917 29 93 0.0 1.6 0.00 0.00 0.00 37 1014.6
20260510184417 28 243 3.2 17.7 0.00 0.00 0.00 36 1014.7
20260510183921 28 42 1.6 4.8 0.00 0.00 0.00 38 1014.7
20260510183418 28 73 3.2 6.4 0.00 0.00 0.00 37 1014.8
20260510182917 28 103 0.0 3.2 0.00 0.00 0.00 43 1015.0
20260510182417 28 225 6.4 16.1 0.00 0.00 0.00 37 1014.9
20260510181918 28 217 3.2 4.8 0.00 0.00 0.00 37 1015.0
20260510181417 27 214 3.2 4.8 0.00 0.00 0.00 38 1015.0
20260510180917 28 64 3.2 4.8 0.00 0.00 0.00 38 1015.0
20260510180417 28 50 3.2 6.4 0.00 0.00 0.00 41 1015.1
20260510175917 28 64 1.6 3.2 0.00 0.00 0.00 41 1015.1
20260510175417 27 197 1.6 3.2 0.00 0.00 0.00 38 1015.0
20260510174920 27 62 3.2 4.8 0.00 0.00 0.00 40 1015.2
20260510174417 27 53 1.6 4.8 0.00 0.00 0.00 42 1015.2
20260510173918 27 79 3.2 6.4 0.00 0.00 0.00 40 1015.2
20260510173417 27 84 1.6 6.4 0.00 0.00 0.00 42 1015.2
20260510172917 27 66 4.8 6.4 0.00 0.00 0.00 39 1015.2
20260510172417 27 210 1.6 4.8 0.00 0.00 0.00 40 1015.2
20260510171917 27 67 0.0 3.2 0.00 0.00 0.00 42 1015.3
20260510171417 27 209 1.6 3.2 0.00 0.00 0.00 41 1015.3
20260510170918 27 215 6.4 14.5 0.00 0.00 0.00 42 1015.3
20260510170417 27 72 3.2 6.4 0.00 0.00 0.00 40 1015.3
20260510165917 26 78 3.2 4.8 0.00 0.00 0.00 41 1015.3
20260510165417 26 50 1.6 4.8 0.00 0.00 0.00 43 1015.4
20260510164918 26 221 3.2 6.4 0.00 0.00 0.00 42 1015.4
20260510164417 26 220 3.2 8.0 0.00 0.00 0.00 41 1015.4
20260510163919 26 229 3.2 8.0 0.00 0.00 0.00 41 1015.4
20260510163417 26 88 1.6 4.8 0.00 0.00 0.00 45 1015.4
20260510162917 26 73 3.2 8.0 0.00 0.00 0.00 43 1015.5
20260510162417 26 116 0.0 1.6 0.00 0.00 0.00 48 1015.6
20260510161917 26 191 1.6 4.8 0.00 0.00 0.00 45 1015.6
20260510161417 26 101 1.6 3.2 0.00 0.00 0.00 43 1015.6
20260510160917 26 57 3.2 8.0 0.00 0.00 0.00 41 1015.6
20260510160417 25 65 3.2 6.4 0.00 0.00 0.00 48 1015.7
20260510155917 25 241 1.6 3.2 0.00 0.00 0.00 50 1015.7
20260510155417 25 245 3.2 6.4 0.00 0.00 0.00 49 1015.7
20260510154918 25 176 1.6 3.2 0.00 0.00 0.00 51 1015.8
20260510154417 25 77 1.6 4.8 0.00 0.00 0.00 53 1016.0
20260510153917 25 160 0.0 3.2 0.00 0.00 0.00 55 1016.1
20260510153417 25 79 1.6 3.2 0.00 0.00 0.00 54 1016.1
20260510152918 25 63 1.6 3.2 0.00 0.00 0.00 56 1016.1
20260510152417 25 175 3.2 6.4 0.00 0.00 0.00 57 1016.2
20260510151917 25 103 1.6 6.4 0.00 0.00 0.00 60 1016.1
20260510151417 25 125 3.2 6.4 0.00 0.00 0.00 59 1016.0
20260510150917 25 115 0.0 3.2 0.00 0.00 0.00 58 1015.9
20260510150417 25 202 0.0 3.2 0.00 0.00 0.00 56 1015.9
20260510145920 25 62 1.6 4.8 0.00 0.00 0.00 57 1015.9
20260510145418 24 73 1.6 4.8 0.00 0.00 0.00 62 1015.9
20260510144918 24 55 1.6 4.8 0.00 0.00 0.00 59 1015.8
20260510144417 23 105 1.6 4.8 0.00 0.00 0.00 62 1015.8
20260510143917 23 225 3.2 4.8 0.00 0.00 0.00 62 1015.8
20260510143419 23 54 3.2 6.4 0.00 0.00 0.00 66 1015.8
20260510142917 22 0 0.0 0.0 0.00 0.00 0.00 64 1015.9
20260510142417 22 205 0.0 1.6 0.00 0.00 0.00 65 1015.8
20260510141917 22 100 0.0 1.6 0.00 0.00 0.00 71 1015.9
20260510141417 21 79 0.0 3.2 0.00 0.00 0.00 72 1015.9
20260510140917 21 87 1.6 3.2 0.00 0.00 0.00 72 1015.9
20260510140419 21 73 4.8 6.4 0.00 0.00 0.00 71 1015.9
20260510135917 21 78 3.2 4.8 0.00 0.00 0.00 72 1016.0
20260510135417 21 63 1.6 4.8 0.00 0.00 0.00 75 1016.0
20260510134917 21 60 0.0 3.2 0.00 0.00 0.00 77 1016.1
20260510134417 20 0 0.0 0.0 0.00 0.00 0.00 77 1016.1
20260510133917 20 189 0.0 1.6 0.00 0.00 0.00 80 1015.9
20260510133417 20 84 1.6 3.2 0.00 0.00 0.00 80 1015.9
20260510132917 20 199 0.0 3.2 0.00 0.00 0.00 80 1015.9
20260510132417 19 126 0.0 1.6 0.00 0.00 0.00 83 1015.9
20260510131917 18 0 0.0 0.0 0.00 0.00 0.00 84 1016.0
20260510131417 18 0 0.0 0.0 0.00 0.00 0.00 87 1016.0
20260510130919 18 241 0.0 1.6 0.00 0.00 0.00 87 1015.8
20260510130417 18 66 1.6 3.2 0.00 0.00 0.00 89 1015.7
20260510125918 17 39 0.0 1.6 0.00 0.00 0.00 89 1015.6
20260510125417 17 0 0.0 0.0 0.00 0.00 0.00 90 1015.5
20260510124917 17 242 0.0 0.0 0.00 0.00 0.00 92 1015.5
20260510124417 17 225 1.6 1.6 0.00 0.00 0.00 94 1015.5
20260510123917 16 0 0.0 0.0 0.00 0.00 0.00 97 1015.5
20260510123417 16 0 0.0 0.0 0.00 0.00 0.00 98 1015.6
20260510122917 16 0 0.0 0.0 0.00 0.00 0.00 98 1015.5
20260510122417 15 0 0.0 0.0 0.00 0.00 0.00 97 1015.4
20260510121917 15 0 0.0 0.0 0.00 0.00 0.00 97 1015.4
20260510121417 15 0 0.0 0.0 0.00 0.00 0.00 97 1015.3
20260510120917 15 0 0.0 0.0 0.00 0.00 0.00 98 1015.2
20260510120417 15 0 0.0 0.0 0.00 0.00 0.00 98 1015.2
20260510115917 15 0 0.0 0.0 0.00 0.00 0.00 98 1015.2
20260510115417 15 0 0.0 0.0 0.00 0.00 0.00 98 1015.2
20260510114918 15 0 0.0 0.0 0.00 0.00 0.00 98 1015.1
20260510114417 15 0 0.0 0.0 0.00 0.00 0.00 98 1015.0
20260510113917 15 0 0.0 0.0 0.00 0.00 0.00 98 1015.0
20260510113417 15 0 0.0 0.0 0.00 0.00 0.00 98 1014.9
20260510112917 15 0 0.0 0.0 0.00 0.00 0.00 98 1014.8
20260510112418 15 0 0.0 0.0 0.00 0.00 0.00 98 1014.6
20260510111917 15 0 0.0 0.0 0.00 0.00 0.00 98 1014.5
20260510111417 14 0 0.0 0.0 0.00 0.00 0.00 98 1014.5
20260510110917 14 0 0.0 0.0 0.00 0.00 0.00 97 1014.4
20260510110417 14 0 0.0 0.0 0.00 0.00 0.00 98 1014.3
20260510105917 14 0 0.0 0.0 0.00 0.00 0.00 97 1014.3
20260510105417 14 0 0.0 0.0 0.00 0.00 0.00 97 1014.2
20260510104917 14 0 0.0 0.0 0.00 0.00 0.00 97 1014.2
20260510104418 14 0 0.0 0.0 0.00 0.00 0.00 97 1014.0
20260510103917 14 0 0.0 0.0 0.00 0.00 0.00 97 1014.0
20260510103417 14 0 0.0 0.0 0.00 0.00 0.00 97 1013.9
20260510102917 14 0 0.0 0.0 0.00 0.00 0.00 97 1013.9
20260510102417 14 0 0.0 0.0 0.00 0.00 0.00 97 1013.9
20260510101917 14 0 0.0 0.0 0.00 0.00 0.00 97 1013.8
20260510101417 14 0 0.0 0.0 0.00 0.00 0.00 97 1013.7
20260510100917 14 0 0.0 0.0 0.00 0.00 0.00 97 1013.7
20260510100417 14 32 0.0 0.0 0.00 0.00 0.00 97 1013.5
20260510095918 14 0 0.0 0.0 0.00 0.00 0.00 97 1013.4
20260510095417 14 0 0.0 0.0 0.00 0.00 0.00 97 1013.3
20260510094918 14 0 0.0 0.0 0.00 0.00 0.00 97 1013.3
20260510094418 14 0 0.0 0.0 0.00 0.00 0.00 97 1013.3
20260510093917 14 0 0.0 0.0 0.00 0.00 0.00 97 1013.2
20260510093417 14 0 0.0 0.0 0.00 0.00 0.00 97 1013.1
20260510092917 14 0 0.0 0.0 0.00 0.00 0.00 97 1013.0
20260510092417 14 0 0.0 0.0 0.00 0.00 0.00 97 1012.9
20260510091917 14 0 0.0 0.0 0.00 0.00 0.00 97 1012.8
20260510091417 14 0 0.0 0.0 0.00 0.00 0.00 97 1012.8
20260510090917 14 0 0.0 0.0 0.00 0.00 0.00 97 1012.8
20260510090417 14 44 0.0 0.0 0.00 0.00 0.00 97 1012.8
20260510085917 15 0 0.0 0.0 0.00 0.00 0.00 97 1012.8
20260510085417 15 0 0.0 0.0 0.00 0.00 0.00 97 1012.6
20260510084917 15 0 0.0 0.0 0.00 0.00 0.00 97 1012.6
20260510084417 15 0 0.0 0.0 0.00 0.00 0.00 97 1012.6
20260510083917 15 0 0.0 0.0 0.00 0.00 0.00 97 1012.7
20260510083417 15 0 0.0 0.0 0.00 0.00 0.00 97 1012.7
20260510082917 15 0 0.0 0.0 0.00 0.00 0.00 97 1012.7
20260510082417 15 0 0.0 0.0 0.00 0.00 0.00 97 1012.6
20260510081917 15 0 0.0 0.0 0.00 0.00 0.00 97 1012.5
20260510081417 15 0 0.0 0.0 0.00 0.00 0.00 97 1012.4
20260510080917 15 0 0.0 0.0 0.00 0.00 0.00 97 1012.5
20260510080417 15 0 0.0 0.0 0.00 0.00 0.00 97 1012.4
20260510075917 15 0 0.0 0.0 0.00 0.00 0.00 97 1012.5
20260510075417 15 0 0.0 0.0 0.00 0.00 0.00 97 1012.5
20260510074917 15 0 0.0 0.0 0.00 0.00 0.00 97 1012.5
20260510074417 15 0 0.0 0.0 0.00 0.00 0.00 97 1012.5
20260510073917 15 0 0.0 0.0 0.00 0.00 0.00 97 1012.4
20260510073417 15 0 0.0 0.0 0.00 0.00 0.00 97 1012.4
20260510072918 15 0 0.0 0.0 0.00 0.00 0.00 97 1012.4
20260510072417 15 0 0.0 0.0 0.00 0.00 0.00 97 1012.4
20260510071917 15 0 0.0 0.0 0.00 0.00 0.00 97 1012.2
20260510071417 15 0 0.0 0.0 0.00 0.00 0.00 97 1012.2
20260510070919 15 0 0.0 0.0 0.00 0.00 0.00 97 1012.2
20260510070417 15 0 0.0 0.0 0.00 0.00 0.00 97 1012.1
20260510065917 15 0 0.0 0.0 0.00 0.00 0.00 97 1012.2
20260510065417 15 0 0.0 0.0 0.00 0.00 0.00 97 1012.3
20260510064917 15 0 0.0 0.0 0.00 0.00 0.00 97 1012.3
20260510064417 15 0 0.0 0.0 0.00 0.00 0.00 97 1012.3
20260510063917 15 0 0.0 0.0 0.00 0.00 0.00 97 1012.4
20260510063417 15 0 0.0 0.0 0.00 0.00 0.00 97 1012.4
20260510062918 15 0 0.0 0.0 0.00 0.00 0.00 97 1012.4
20260510062417 15 0 0.0 0.0 0.00 0.00 0.00 97 1012.3
20260510061917 15 0 0.0 0.0 0.00 0.00 0.00 97 1012.3
20260510061417 15 0 0.0 0.0 0.00 0.00 0.00 97 1012.2
20260510060917 15 0 0.0 0.0 0.00 0.00 0.00 97 1012.2
20260510060417 15 0 0.0 0.0 0.00 0.00 0.00 97 1012.3
20260510055917 15 0 0.0 0.0 0.00 0.00 0.00 97 1012.4
20260510055417 15 0 0.0 0.0 0.00 0.00 0.00 97 1012.4
20260510054917 15 0 0.0 0.0 0.00 0.00 0.00 97 1012.5
20260510054417 15 0 0.0 0.0 0.00 0.00 0.00 96 1012.5
20260510053917 15 0 0.0 0.0 0.00 0.00 0.00 97 1012.5
20260510053417 15 0 0.0 0.0 0.00 0.00 0.00 97 1012.5
20260510052917 15 0 0.0 0.0 0.00 0.00 0.00 97 1012.6
20260510052417 15 0 0.0 0.0 0.00 0.00 0.00 96 1012.6
20260510051917 15 0 0.0 0.0 0.00 0.00 0.00 96 1012.7
20260510051417 15 0 0.0 0.0 0.00 0.00 0.00 96 1012.6
20260510050917 15 16 0.0 0.0 0.00 0.00 0.00 96 1012.8
20260510050418 15 0 0.0 0.0 0.00 0.00 0.00 96 1012.9
20260510045917 15 272 0.0 0.0 0.00 0.00 0.00 96 1012.8
20260510045417 15 0 0.0 0.0 0.00 0.00 0.00 96 1012.7
20260510044917 15 0 0.0 0.0 0.00 0.00 0.00 96 1012.8
20260510044417 15 0 0.0 0.0 0.00 0.00 0.00 96 1012.9
20260510043919 15 0 0.0 0.0 0.00 0.00 0.00 96 1013.0
20260510043417 15 0 0.0 0.0 0.00 0.00 0.00 96 1012.9
20260510042917 15 0 0.0 0.0 0.00 0.00 0.00 96 1012.8
20260510042417 15 0 0.0 0.0 0.00 0.00 0.00 96 1012.8
20260510041918 15 46 0.0 0.0 0.00 0.00 0.00 96 1012.8
20260510041417 15 0 0.0 0.0 0.00 0.00 0.00 96 1012.9
20260510040917 15 0 0.0 0.0 0.00 0.00 0.00 96 1012.9
20260510040417 15 0 0.0 0.0 0.00 0.00 0.00 96 1012.9
20260510035917 15 16 0.0 1.6 0.00 0.00 0.10 96 1012.9
20260510035417 15 0 0.0 0.0 0.00 0.00 0.10 96 1012.8
20260510034917 15 0 0.0 0.0 0.00 0.00 0.10 96 1012.7
20260510034417 15 0 0.0 0.0 0.00 0.00 0.10 95 1012.7
20260510033917 15 5 0.0 0.0 0.00 0.00 0.10 95 1012.6
20260510033417 15 0 0.0 0.0 0.00 0.00 0.10 95 1012.7
20260510032917 15 0 0.0 0.0 0.00 0.00 0.10 95 1012.6
20260510032417 15 0 0.0 0.0 0.00 0.00 0.10 95 1012.7
20260510031917 15 19 0.0 1.6 0.00 0.00 0.10 95 1012.7
20260510031417 15 0 0.0 0.0 0.00 0.00 0.10 95 1012.6
20260510030918 16 38 0.0 1.6 0.00 0.00 0.10 95 1012.6
20260510030417 16 0 0.0 0.0 0.00 0.00 0.10 95 1012.5
20260510025917 16 0 0.0 0.0 0.00 0.00 0.10 95 1012.5
20260510025417 16 0 0.0 0.0 0.00 0.00 0.10 95 1012.5
20260510024918 16 0 0.0 0.0 0.00 0.00 0.10 95 1012.4
20260510024418 16 5 0.0 0.0 0.00 0.00 0.10 95 1012.5
20260510023917 16 0 0.0 0.0 0.00 0.00 0.10 94 1012.5
20260510023417 16 0 0.0 0.0 0.00 0.00 0.10 94 1012.4
20260510022917 16 0 0.0 0.0 0.00 0.00 0.10 94 1012.4
20260510022417 16 0 0.0 0.0 0.00 0.00 0.10 94 1012.4
20260510021918 16 0 0.0 0.0 0.00 0.00 0.10 94 1012.4
20260510021417 16 46 0.0 1.6 0.00 0.00 0.10 94 1012.3
20260510020917 16 48 0.0 0.0 0.00 0.00 0.10 94 1012.3
20260510020417 16 0 0.0 0.0 0.00 0.00 0.10 94 1012.3
20260510015917 16 0 0.0 0.0 0.00 0.00 0.10 94 1012.1
20260510015419 16 40 0.0 1.6 0.00 0.00 0.10 94 1012.2
20260510014917 16 0 0.0 0.0 0.00 0.00 0.10 93 1012.3
20260510014417 17 0 0.0 0.0 0.00 0.00 0.10 93 1012.2
20260510013917 17 0 0.0 0.0 0.00 0.00 0.10 93 1012.0
20260510013417 17 0 0.0 0.0 0.00 0.00 0.10 93 1011.9
20260510012917 17 0 0.0 0.0 0.00 0.00 0.10 92 1011.8
20260510012417 17 0 0.0 0.0 0.00 0.00 0.10 92 1011.7
20260510011917 17 0 0.0 0.0 0.00 0.00 0.10 92 1011.6
20260510011417 17 0 0.0 0.0 0.00 0.00 0.10 92 1011.5
20260510010917 17 0 0.0 0.0 0.00 0.00 0.10 91 1011.5
20260510010418 17 0 0.0 0.0 0.00 0.00 0.10 91 1011.4
20260510005917 17 0 0.0 0.0 0.00 0.00 0.10 90 1011.3
20260510005418 18 0 0.0 0.0 0.00 0.00 0.10 90 1011.3
20260510004917 18 0 0.0 0.0 0.00 0.00 0.10 90 1011.3
20260510004417 18 15 0.0 0.0 0.00 0.00 0.10 89 1011.2
20260510003917 18 0 0.0 0.0 0.00 0.00 0.10 89 1011.1
20260510003417 18 0 0.0 0.0 0.00 0.00 0.10 89 1011.1
20260510002917 18 0 0.0 0.0 0.00 0.00 0.10 88 1011.1
20260510002417 18 0 0.0 0.0 0.00 0.00 0.10 87 1011.0
20260510001918 19 0 0.0 0.0 0.00 0.00 0.10 86 1011.1
20260510001417 19 0 0.0 0.0 0.00 0.00 0.10 86 1011.1
20260510000919 20 0 0.0 0.0 0.00 0.00 0.10 85 1011.2
20260510000418 20 301 0.0 1.6 0.00 0.00 0.10 85 1011.1
20260509235917 20 0 0.0 0.0 0.00 0.00 0.10 84 1011.1
20260509235417 20 0 0.0 0.0 0.00 0.00 0.10 84 1011.1
20260509234917 20 0 0.0 0.0 0.00 0.00 0.10 84 1011.0
20260509234417 20 0 0.0 0.0 0.00 0.00 0.10 83 1011.0
20260509233917 20 0 0.0 0.0 0.00 0.00 0.10 82 1011.0
20260509233417 20 0 0.0 0.0 0.00 0.00 0.10 82 1010.9
20260509232917 20 0 0.0 0.0 0.00 0.00 0.10 82 1010.8
20260509232418 21 0 0.0 0.0 0.00 0.00 0.10 81 1010.6
20260509231917 21 0 0.0 0.0 0.00 0.00 0.10 81 1010.6
20260509231417 21 0 0.0 0.0 0.00 0.00 0.10 81 1010.7
20260509230917 21 0 0.0 0.0 0.00 0.00 0.10 81 1010.7
20260509230417 21 0 0.0 0.0 0.00 0.00 0.10 79 1010.5
20260509225917 21 0 0.0 0.0 0.00 0.00 0.10 80 1010.4
20260509225417 21 0 0.0 0.0 0.00 0.00 0.10 79 1010.5
20260509224917 22 0 0.0 0.0 0.00 0.00 0.10 78 1010.4
20260509224417 22 0 0.0 0.0 0.00 0.00 0.10 77 1010.3
20260509223917 22 0 0.0 0.0 0.00 0.00 0.10 76 1010.2
20260509223417 22 254 1.6 3.2 0.00 0.00 0.10 72 1010.2
20260509222917 22 0 0.0 0.0 0.00 0.00 0.10 72 1010.3
20260509222417 22 0 0.0 0.0 0.00 0.00 0.10 75 1010.4
20260509221917 22 262 3.2 8.0 0.00 0.00 0.10 71 1010.3
20260509221417 22 269 0.0 3.2 0.00 0.00 0.10 74 1010.5
20260509220918 22 0 0.0 0.0 0.00 0.00 0.10 76 1010.6
20260509220417 22 262 0.0 6.4 0.00 0.00 0.10 75 1010.6
20260509215919 22 0 0.0 0.0 0.00 0.00 0.10 75 1010.5
20260509215419 22 256 1.6 4.8 0.00 0.00 0.10 75 1010.5
20260509214917 22 0 0.0 0.0 0.00 0.00 0.10 74 1010.4
20260509214417 22 259 1.6 4.8 0.00 0.00 0.10 74 1010.4
20260509213917 22 252 1.6 3.2 0.00 0.00 0.10 74 1010.5
20260509213417 22 51 0.0 1.6 0.00 0.00 0.10 76 1010.4
20260509212917 22 0 0.0 0.0 0.00 0.00 0.10 74 1010.4
20260509212417 22 235 0.0 1.6 0.00 0.00 0.10 72 1010.5
20260509211917 22 54 0.0 1.6 0.00 0.00 0.10 74 1010.4
20260509211417 23 0 0.0 0.0 0.00 0.00 0.10 71 1010.3
20260509210916 23 53 0.0 6.4 0.00 0.00 0.10 71 1010.2
20260509210417 23 140 0.0 0.0 0.00 0.00 0.10 72 1010.3
20260509205917 23 136 1.6 3.2 0.00 0.00 0.10 70 1010.2
20260509205418 22 253 0.0 3.2 0.00 0.00 0.10 72 1010.2
20260509204917 22 231 0.0 1.6 0.00 0.00 0.10 74 1010.2
20260509204417 21 264 1.6 6.4 0.00 0.00 0.10 73 1010.1
20260509203917 21 0 0.0 0.0 0.00 0.00 0.10 80 1010.3
20260509203417 21 0 0.0 0.0 0.00 0.00 0.10 78 1010.4
20260509202917 21 54 0.0 3.2 0.00 0.00 0.10 76 1010.2
20260509202419 21 0 0.0 0.0 0.00 0.00 0.10 78 1010.3
20260509201917 21 294 0.0 1.6 0.00 0.00 0.10 76 1010.4
20260509201417 21 43 1.6 3.2 0.00 0.00 0.10 74 1010.5
20260509200917 21 262 1.6 4.8 0.00 0.00 0.10 75 1010.4
20260509200417 21 249 1.6 3.2 0.00 0.00 0.10 75 1010.4
20260509195917 21 0 0.0 0.0 0.00 0.00 0.10 78 1010.5
20260509195417 21 0 0.0 0.0 0.00 0.00 0.10 79 1010.7
20260509194917 20 0 0.0 0.0 0.00 0.00 0.10 79 1010.7
20260509194417 20 251 0.0 1.6 0.00 0.00 0.10 77 1010.7
20260509193918 20 0 0.0 0.0 0.00 0.00 0.10 79 1010.9
20260509193417 20 57 1.6 3.2 0.00 0.00 0.10 77 1010.7
20260509192917 20 75 0.0 3.2 0.00 0.00 0.10 79 1010.9